FW9338 Weather Reports


Display with metric or nautical units.
time (UTC)temp
F
wind
direction
speed
MPH
gust
MPH
rain 1hr
in
rain 24hr
in
rain mn
in
humidity
%
barometer
mb
20260507080015 54 135 2.0 6.0 0.00 0.00 0.00 82 1018.3
20260507073016 53 90 1.0 6.0 0.00 0.00 0.00 83 1018.0
20260507070016 50 0.0 3.0 0.00 0.00 0.00 86 1017.9
20260507063036 47 0.0 0.0 0.00 0.00 0.00 87 1017.8
20260507060015 46 0.0 3.0 0.00 0.00 0.00 88 1017.7
20260507053015 45 0.0 4.0 0.00 0.00 0.00 89 1017.4
20260507050017 44 0.0 1.0 0.00 0.00 0.00 89 1017.3
20260507043017 43 0.0 1.0 0.00 0.00 0.00 89 1017.4
20260507040037 42 0.0 2.0 0.00 0.00 0.00 89 1017.4
20260507033017 42 0.0 1.0 0.00 0.00 0.00 89 1017.2
20260507030017 42 0.0 2.0 0.00 0.00 0.00 89 1017.2
20260507023057 42 0.0 1.0 0.00 0.00 0.00 88 1017.2
20260507020017 42 0.0 0.0 0.00 0.00 0.00 87 1017.1
20260507013037 43 0.0 1.0 0.00 0.00 0.00 86 1017.1
20260507010017 44 0.0 1.0 0.00 0.00 0.00 85 1017.2
20260507003037 45 0.0 1.0 0.00 0.00 0.00 83 1017.2
20260507000017 46 0.0 0.0 0.00 0.00 0.00 83 1017.2
20260506233017 46 0.0 0.0 0.00 0.00 0.00 80 1017.1
20260506230017 48 0.0 1.0 0.00 0.00 0.00 79 1017.1
20260506223017 48 0.0 2.0 0.00 0.00 0.00 78 1017.0
20260506220017 51 0.0 2.0 0.00 0.00 0.00 72 1016.9
20260506213017 53 0.0 3.0 0.00 0.00 0.00 69 1016.7
20260506210037 54 0.0 1.0 0.00 0.00 0.00 69 1016.5
20260506203037 55 0.0 2.0 0.00 0.00 0.00 66 1016.4
20260506200017 56 0.0 0.0 0.00 0.00 0.00 63 1016.1
20260506193017 56 0.0 1.0 0.00 0.00 0.00 61 1015.7
20260506190017 57 0.0 3.0 0.00 0.00 0.00 60 1015.5
20260506183017 57 45 1.0 4.0 0.00 0.00 0.00 59 1015.4
20260506180017 58 45 1.0 4.0 0.00 0.00 0.00 59 1015.2
20260506173016 57 248 2.0 6.0 0.00 0.00 0.00 70 1015.0
20260506170016 58 248 1.0 7.0 0.00 0.00 0.00 57 1014.9
20260506163016 58 225 1.0 7.0 0.00 0.00 0.00 64 1015.1
20260506160016 58 225 2.0 8.0 0.00 0.00 0.00 63 1015.1
20260506153036 58 225 3.0 8.0 0.00 0.00 0.00 63 1015.3
20260506150016 58 225 2.0 7.0 0.00 0.00 0.00 65 1015.4
20260506143016 58 225 2.0 7.0 0.00 0.00 0.00 57 1015.4
20260506140016 58 68 2.0 9.0 0.00 0.00 0.00 58 1015.4
20260506133016 60 68 3.0 13.0 0.00 0.00 0.00 51 1015.4
20260506130016 59 0 3.0 9.0 0.00 0.00 0.00 50 1015.5
20260506123016 59 45 3.0 13.0 0.00 0.00 0.00 52 1015.4
20260506120016 59 338 4.0 15.0 0.00 0.00 0.00 51 1015.6
20260506113016 58 68 4.0 10.0 0.00 0.00 0.00 54 1015.7
20260506110016 57 45 5.0 11.0 0.00 0.00 0.00 51 1015.8
20260506103036 56 23 5.0 14.0 0.00 0.00 0.00 59 1015.7
20260506100016 55 45 5.0 14.0 0.00 0.00 0.00 62 1015.8
20260506093016 53 45 4.0 11.0 0.00 0.00 0.00 71 1015.8
20260506090036 51 23 3.0 8.0 0.00 0.00 0.00 77 1015.9
20260506083036 50 23 3.0 9.0 0.00 0.00 0.00 79 1015.9